Clarksdale Fletcher Field Air, MS

5:27 AM CST on November 20, 2019 (GMT -0600)
Fletcher

Weather History for KCKM - October, 2019

Change the Weather History Date:

Wednesday, October 23, 2019

  Actual Average (WUND) Record (WUND)
Temperature  
Mean Temperature 57 °F -  
Max Temperature 73 °F - - (-1)
Min Temperature 41 °F - - (-1)
Degree Days  
Heating Degree Days 8    
Growing Degree Days 7 (Base 50)    
Moisture  
Dew Point 43 °F    
Average Humidity 69    
Maximum Humidity 100    
Minimum Humidity 29    
Precipitation  
Precipitation 0.00 in - - ()
Sea Level Pressure  
Sea Level Pressure 30.15 in    
Wind  
Wind Speed 2 mph ()    
Max Wind Speed 12 mph    
Max Gust Speed 15 mph    
Visibility 10.0 miles    
Events      
Averages and records for this station are not official NWS values.
T = Trace of Precipitation, MM = Missing Value Source: Averaged Metar Reports

Daily Weather History Graph

Daily Weather History Graph

Search for Another Location

Airport or City:

Astronomy

Oct. 23, 2019 Rise Set
Actual Time 7:13 AM CDT 6:18 PM CDT
Civil Twilight 6:48 AM CDT 6:43 PM CDT
Nautical Twilight 6:18 AM CDT 7:13 PM CDT
Astronomical Twilight 5:49 AM CDT 7:42 PM CDT
Moon 1:51 AM CDT (10/23) 3:51 PM CDT (10/23)
Length of Visible Light 11h 55m
Length of Day
11h 04m
Waning Crescent, 26% of the Moon is Illuminated
Oct 23
Waning Crescent
Oct 27
New
Nov 4
First Quarter
Nov 12
Full
Nov 19
Last Quarter

Hourly Weather History & Observations

Time (CDT) Temp. Dew Point Humidity Pressure Visibility Wind Dir Wind Speed Gust Speed Precip Events Conditions
12:55 AM 46.4 °F 44.6 °F 93% 30.14 in 10.0 mi Calm Calm - N/A   Unknown
1:55 AM 44.6 °F 44.6 °F 100% 30.15 in 10.0 mi Calm Calm - N/A   Unknown
2:35 AM 44.6 °F 44.6 °F 100% 30.15 in 10.0 mi Calm Calm - N/A   Unknown
2:55 AM 44.6 °F 42.8 °F 93% 30.15 in 10.0 mi Calm Calm - N/A   Unknown
3:15 AM 44.6 °F 44.6 °F 100% 30.15 in 10.0 mi Calm Calm - N/A   Unknown
3:35 AM 42.8 °F 42.8 °F 100% 30.15 in 10.0 mi Calm Calm - N/A   Unknown
3:55 AM 42.8 °F 42.8 °F 100% 30.15 in 10.0 mi Calm Calm - N/A   Unknown
4:15 AM 42.8 °F 42.8 °F 100% 30.15 in 10.0 mi Calm Calm - N/A   Unknown
4:35 AM 42.8 °F 42.8 °F 100% 30.15 in 10.0 mi Calm Calm - N/A   Unknown
4:55 AM 42.8 °F 42.8 °F 100% 30.16 in 10.0 mi Calm Calm - N/A   Unknown
5:15 AM 42.8 °F 42.8 °F 100% 30.16 in 10.0 mi Calm Calm - N/A   Unknown
5:35 AM 42.8 °F 42.8 °F 100% 30.16 in 10.0 mi Calm Calm - N/A   Unknown
5:55 AM 41.0 °F 41.0 °F 100% 30.16 in 10.0 mi Calm Calm - N/A   Unknown
6:15 AM 41.0 °F 41.0 °F 100% 30.17 in 10.0 mi Calm Calm - N/A   Unknown
6:35 AM 41.0 °F 41.0 °F 100% 30.16 in 10.0 mi Calm Calm - N/A   Unknown
6:55 AM 41.0 °F 41.0 °F 100% 30.17 in 10.0 mi Calm Calm - N/A   Unknown
7:15 AM 41.0 °F 41.0 °F 100% 30.17 in 10.0 mi Calm Calm - N/A   Unknown
7:35 AM 41.0 °F 41.0 °F 100% 30.16 in 10.0 mi Calm Calm - N/A   Unknown
7:55 AM 42.8 °F 42.8 °F 100% 30.17 in 10.0 mi Calm Calm - N/A   Unknown
8:15 AM 44.6 °F 44.6 °F 100% 30.17 in 10.0 mi Calm Calm - N/A   Unknown
8:35 AM 48.2 °F 48.2 °F 100% 30.18 in 10.0 mi Calm Calm - N/A   Unknown
8:55 AM 50.0 °F 48.2 °F 94% 30.18 in 10.0 mi Calm Calm - N/A   Unknown
9:15 AM 51.8 °F 50.0 °F 94% 30.19 in 10.0 mi SSE 4.6 mph - N/A   Unknown
9:35 AM 55.4 °F 48.2 °F 77% 30.20 in 10.0 mi Calm Calm - N/A   Unknown
9:55 AM 57.2 °F 50.0 °F 77% 30.20 in 10.0 mi Calm Calm - N/A   Unknown
10:35 AM 62.6 °F 48.2 °F 59% 30.20 in 10.0 mi Calm Calm - N/A   Unknown
10:55 AM 64.4 °F 48.2 °F 56% 30.20 in 10.0 mi Calm Calm - N/A   Unknown
12:15 PM 68.0 °F 42.8 °F 40% 30.20 in 10.0 mi SSW 9.2 mph - N/A   Unknown
12:35 PM 69.8 °F 42.8 °F 38% 30.19 in 10.0 mi South 8.1 mph - N/A   Unknown
12:55 PM 69.8 °F 41.0 °F 35% 30.18 in 10.0 mi South 6.9 mph 15.0 mph N/A   Unknown
1:15 PM 71.6 °F 39.2 °F 31% 30.17 in 10.0 mi SSE 6.9 mph 13.8 mph N/A   Unknown
1:35 PM 71.6 °F 37.4 °F 29% 30.16 in 10.0 mi South 6.9 mph 13.8 mph N/A   Unknown
1:55 PM 71.6 °F 37.4 °F 29% 30.16 in 10.0 mi South 10.4 mph - N/A   Unknown
2:15 PM 71.6 °F 37.4 °F 29% 30.15 in 10.0 mi South 9.2 mph - N/A   Unknown
2:55 PM 71.6 °F 39.2 °F 31% 30.14 in 10.0 mi South 9.2 mph - N/A   Unknown
3:15 PM 71.6 °F 39.2 °F 31% 30.14 in 10.0 mi SSE 11.5 mph - N/A   Unknown
3:35 PM 71.6 °F 39.2 °F 31% 30.13 in 10.0 mi South 9.2 mph - N/A   Unknown
3:55 PM 73.4 °F 39.2 °F 29% 30.12 in 10.0 mi SSE 10.4 mph - N/A   Unknown
4:15 PM 71.6 °F 39.2 °F 31% 30.12 in 10.0 mi SSE 9.2 mph - N/A   Unknown
4:35 PM 71.6 °F 39.2 °F 31% 30.12 in 10.0 mi SSE 10.4 mph - N/A   Unknown
4:55 PM 71.6 °F 39.2 °F 31% 30.12 in 10.0 mi SSE 8.1 mph - N/A   Unknown
5:15 PM 69.8 °F 37.4 °F 31% 30.12 in 10.0 mi SSE 10.4 mph - N/A   Unknown
5:35 PM 69.8 °F 39.2 °F 33% 30.11 in 10.0 mi SSE 8.1 mph - N/A   Unknown
5:55 PM 68.0 °F 41.0 °F 37% 30.12 in 10.0 mi Calm Calm - N/A   Unknown
6:15 PM 64.4 °F 42.8 °F 45% 30.12 in 10.0 mi Calm Calm - N/A   Unknown
6:35 PM 62.6 °F 42.8 °F 48% 30.12 in 10.0 mi Calm Calm - N/A   Unknown
6:55 PM 60.8 °F 42.8 °F 52% 30.13 in 10.0 mi Calm Calm - N/A   Unknown
7:15 PM 60.8 °F 42.8 °F 52% 30.13 in 10.0 mi Calm Calm - N/A   Unknown
7:35 PM 59.0 °F 44.6 °F 59% 30.14 in 10.0 mi Calm Calm - N/A   Unknown
7:55 PM 57.2 °F 44.6 °F 63% 30.14 in 10.0 mi Calm Calm - N/A   Unknown
8:15 PM 59.0 °F 42.8 °F 55% 30.14 in 10.0 mi Calm Calm - N/A   Unknown
8:35 PM 55.4 °F 46.4 °F 72% 30.14 in 10.0 mi Calm Calm - N/A   Unknown
8:55 PM 55.4 °F 46.4 °F 72% 30.14 in 10.0 mi Calm Calm - N/A   Unknown
9:15 PM 53.6 °F 46.4 °F 77% 30.14 in 10.0 mi Calm Calm - N/A   Unknown
9:35 PM 53.6 °F 48.2 °F 82% 30.15 in 10.0 mi Calm Calm - N/A   Unknown
10:15 PM 53.6 °F 46.4 °F 77% 30.15 in 10.0 mi ESE 5.8 mph - N/A   Unknown
10:35 PM 53.6 °F 46.4 °F 77% 30.15 in 10.0 mi SE 5.8 mph - N/A   Unknown
11:15 PM 53.6 °F 44.6 °F 72% 30.16 in - SE 4.6 mph - N/A   Unknown
11:35 PM 53.6 °F 44.6 °F 72% 30.16 in 10.0 mi SE 5.8 mph - N/A   Unknown
11:55 PM 53.6 °F 44.6 °F 72% 30.15 in 10.0 mi SE 6.9 mph - N/A   Unknown